Location: ??
(34.9170°N, 135.5016°E)
Time: 09:20:35
(UTC+00:00)

X-37B - Pass Details

Date: 24 January 2021
Orbit: 383 x 391 km, 45.0° (Epoch: 10 February)

Event Time Altitude Azimuth Distance (km) Brightness Sun altitude
Rises 09:09:19 0° 289° (WNW) 2,270 5.5 -10.6°
Reaches altitude 10° 09:12:04 10° 315° (NW) 1,418 3.8 -11.2°
Maximum altitude 09:13:58 15° 352° (N) 1,169 2.9 -11.6°
Enters shadow 09:15:45 11° 26° (NNE) 1,387 3.0 -11.9°
